Location: T�bingen+AIT
(48.5342°N, 9.0700°E)
Time: 19:30:38
(UTC+01:00)

Cosmos 1939 Rocket - Pass Details

Date: 14 September 2017
Orbit: 532 x 587 km, 97.5° (Epoch: 22 November)

Event Time Altitude Azimuth Distance (km) Brightness Sun altitude
Exits shadow 21:03:29 20° 148° (SSE) 1,275 4.2 -14.5°
Maximum altitude 21:06:00 59° 73° (ENE) 621 2.8 -14.9°
Drops below altitude 10° 21:09:50 10° 354° (N) 1,809 5.8 -15.5°
Sets 21:12:00 0° 351° (N) 2,712 6.8 -15.8°
